This demonstration page uses our WeatherBlox Daily Observations layout. Learn more.

Left ArrowRight Arrow

Hourly Observations for April 18, 2021

Temp ( °F °C ) Dew Point ( °F °C ) Humidity (%) Winds ( mph kmh ) Pressure ( in mb ) Visibility ( mi km ) Precip ( " mm )
12:54 am 00:54 Cloudy 45 7.2 35 1.7 68 68 W 3 6 30.12 1020 10 16.0934 0 0
1:54 am 01:54 Cloudy 45 7.2 35 1.7 68 68 Calm 30.11 1020 10 16.0934 0 0
2:54 am 02:54 Cloudy 45 7.2 35 1.7 68 68 W 3 6 30.1 1019 10 16.0934 0 0
3:54 am 03:54 Cloudy 45 7.2 35 1.7 68 68 Calm 30.09 1019 10 16.0934 0 0
4:54 am 04:54 Cloudy 45 7.2 35 1.7 68 68 NW 6 9 30.08 1019 10 16.0934 0 0
5:54 am 05:54 Cloudy 44 6.7 34 1.1 68 68 NW 7 11 30.07 1018 10 16.0934 0 0
6:54 am 06:54 Cloudy 43 6.1 34 1.1 71 71 NW 6 9 30.08 1019 10 16.0934 0 0
7:54 am 07:54 Cloudy 45 7.2 34 1.1 66 66 NW 3 6 30.09 1019 10 16.0934 0 0
8:54 am 08:54 Cloudy 48 8.9 34 1.1 58 58 NW 7 11 30.09 1019 10 16.0934 0 0
9:54 am 09:54 Mostly Cloudy 52 11.1 34 1.1 50 50 NW 6 9 30.07 1018 10 16.0934 0 0
10:54 am 10:54 Sunny 56 13.3 24 -4.4 29 29 WNW 8 13 30.06 1018 10 16.0934 0 0
11:54 am 11:54 Mostly Cloudy 57 13.9 25 -3.9 29 29 Calm 30.04 1017 10 16.0934 0 0
12:54 pm 12:54 Sunny 58 14.4 26 -3.3 29 29 VRB 6 9 30.02 1017 10 16.0934 0 0
1:54 pm 13:54 Partly Cloudy 61 16.1 26 -3.3 26 26 WNW 14 22 30.01 1016 10 16.0934 0 0
2:54 pm 14:54 Sunny 61 16.1 26 -3.3 26 26 NW 14 22 30 1016 10 16.0934 0 0
3:54 pm 15:54 Sunny 62 16.7 27 -2.8 26 26 WNW 13 20 29.98 1015 10 16.0934 0 0
4:54 pm 16:54 Sunny 63 17.2 27 -2.8 26 26 W 15 24 29.95 1014 10 16.0934 0 0
5:54 pm 17:54 Sunny 62 16.7 27 -2.8 26 26 VRB 5 7 29.94 1014 10 16.0934 0 0
6:54 pm 18:54 Sunny 62 16.7 28 -2.2 28 28 W 8 13 29.93 1013 10 16.0934 0 0
7:54 pm 19:54 Sunny 59 15 30 -1.1 33 33 SSW 6 9 29.92 1013 10 16.0934 0 0
8:54 pm 20:54 Clear 46 7.8 33 0.6 61 61 S 10 17 29.92 1013 10 16.0934 0 0
9:54 pm 21:54 Clear 52 11.1 32 0 47 47 SSW 8 13 29.92 1013 10 16.0934 0 0
10:54 pm 22:54 Clear 47 8.3 32 0 56 56 SSW 6 9 29.92 1013 10 16.0934 0 0
11:54 pm 23:54 Partly Cloudy 48 8.9 33 0.6 56 56 SSW 3 6 29.91 1013 10 16.0934 0 0

Powered by AerisWeather